Preview of NWS' New Version of Forecast
This preview is not operational and should not be used for support decisions.

Regional Weather Roundup (RWR)

Issued by National Weather Service (NWS)

                            
000
ASUS43 KLSX 260107
RWRMO 

WEATHER SUMMARY FOR MISSOURI
NATIONAL WEATHER SERVICE SPRINGFIELD MO
800 PM CDT SUN AUG 25 2019

NOTE: "FAIR" INDICATES FEW OR NO CLOUDS BELOW 12,000 FEET WITH NO
       SIGNIFICANT WEATHER AND/OR OBSTRUCTIONS TO VISIBILITY.
       CURRENT SKY AND/OR WEATHER CONDITIONS ARE NOT AVAILABLE FOR
       CHILLICOTHE AND FARMINGTON.

MOZ001>031-035>038-043-044-053-054-260200-
...NORTHERN AND WESTERN MISSOURI...
  
CITY           SKY/WX    TMP DP  RH WIND       PRES   REMARKS
KANSAS CTY INT CLOUDY    68  67  96 N10       29.82R                  
KANSAS C DTWN  CLOUDY    70  66  87 N6        29.80S                  
LEE'S SUMMIT   CLOUDY    70  66  87 W5        29.81S                  
ST JOSEPH      CLOUDY    68  65  90 NE7       29.83S                  
CHILLICOTHE      N/A     67  66  97 NE9       29.84S                  
KIRKSVILLE     CLOUDY    67  65  93 E7        29.87F                  
     
$$
MOZ066>068-077>081-088>096-101>105-260200-
...SOUTHWEST MISSOURI...
  
CITY           SKY/WX    TMP DP  RH WIND       PRES   REMARKS
SPRINGFIELD    CLOUDY    74  69  85 S7        29.83S                  
JOPLIN         PTCLDY    76  71  85 CALM      29.82R                  
BRANSON        MOCLDY    75  73  94 E5        29.86R                  
               
$$
MOZ032>034-039>042-045>050-055>058-069>072-260200-
...CENTRAL MISSOURI...  
  
CITY           SKY/WX    TMP DP  RH WIND       PRES   REMARKS
COLUMBIA       CLOUDY    71  68  90 E14G23    29.81F                  
JEFFERSON CITY CLOUDY    75  71  87 E10       29.80F                  
ROLLA          CLOUDY    74  70  87 SE8       29.86R                  
SEDALIA        LGT RAIN  68  68 100 CALM      29.81S                  
WHITEMAN AFB   MOCLDY    72  72 100 CALM      29.76S                  
WARRENSBURG    MOCLDY    72  68  88 CALM      29.80S                  
OSAGE BEACH    MOCLDY    75  71  87 S5        29.83S                  
               
$$
MOZ051-052-059>065-260200-
...EAST CENTRAL MISSOURI...
  
CITY           SKY/WX    TMP DP  RH WIND       PRES   REMARKS
ST LOUIS INTL  LGT RAIN  71  68  90 E8        29.89S                  
SPIRIT OF STL  CLOUDY    71  69  93 E6        29.86F                  
ST CHARLES       N/A    N/A N/A N/A MISG      29.88R                  
                   
$$
MOZ072>076-082>087-097>100-106>115-260200-
...SOUTH CENTRAL AND SOUTHEAST MISSOURI...
  
CITY           SKY/WX    TMP DP  RH WIND       PRES   REMARKS
CAPE GIRARDEAU MOCLDY    78  72  81 SE5       29.87F                  
FARMINGTON     CLOUDY    73  72  96 CALM      29.90R                  
POPLAR BLUFF   FAIR      76  73  91 SE5       29.87S                  
WEST PLAINS    PTCLDY    76  72  87 SE7       29.88R                  
                                       
$$